Regional Weather Roundup
Issued by NWS

Home | Current Version | Previous Version | Text Only | Print | Product List | Glossary On
Versions: 1 2 3 4 5 6 7 8 9 10 11 12 13 14 15 16 17 18 19 20 21 22 23 24 25 26 27 28 29 30 31 32 33 34 35 36 37 38 39 40 41 42 43 44 45 46 47 48 49 50
000
ASUS44 KFWD 241115
RWRTX
NORTH TEXAS HOURLY WEATHER ROUNDUP
NATIONAL WEATHER SERVICE FORT WORTH TX
500 AM CST FRI FEB 24 2017

NOTE: "FAIR" INDICATES FEW OR NO CLOUDS BELOW 12,000 FEET WITH NO
SIGNIFICANT WEATHER AND/OR OBSTRUCTIONS TO VISIBILITY.

TXZ118-119-241200-
DALLAS/FORT WORTH METROPLEX

CITY           SKY/WX    TMP DP  RH WIND       PRES   REMARKS
DFW AIRPORT    PTCLDY    59  43  55 NW22      29.63R
DALLAS LOVE    PTCLDY    63  57  81 W7        29.62R
FTW MEACHAM    PTCLDY    56  40  55 NW21      29.66R
DAL-EXECUTIVE  PTCLDY    57  54  89 SW6       29.61R
FTW-ALLIANCE   CLEAR     53  40  61 N12       29.67R
FTW-NAS-JRB      N/A     57  41  55 NW21G32   29.67R
FTW-SPINKS     PTCLDY    58  54  86 SW3       29.65R
ARLINGTON      PTCLDY    58  55  90 SW3       29.63R
GRAND PRAIRIE  CLEAR     60  56  88 CALM      29.64R
MESQUITE       PTCLDY    60  59  96 S7        29.62S
LANCASTER      PTCLDY    58  56  94 CALM      29.63S
$$

TXZ091>094-102>105-117-120-121-131>134-241200-
NORTH CENTRAL TEXAS

CITY           SKY/WX    TMP DP  RH WIND       PRES   REMARKS
SHRMAN/DENISON PTCLDY    49  41  75 NW16      29.67R
GAINESVILLE    CLEAR     46  39  76 NW14      29.70R WCI  40
BOWIE          CLEAR     45  39  82 NW13      29.70R WCI  38
BRIDGEPORT     CLEAR     49  39  70 NW12      29.72R
DECATUR        CLEAR     46  38  74 NW10G18   29.69R
DENTON         CLEAR     50  41  71 NW15      29.68R
MCKINNEY       PTCLDY    56  46  69 NW15      29.64R
BONHAM         PTCLDY    54  43  66 NW9       29.65R
GREENVILLE     CLEAR     61  57  88 SW8       29.61S
ROCKWALL       PTCLDY    61  60  97 SW9       29.62R
TERRELL          N/A     61  58  90 S5        29.62S
WAXAHACHIE     PTCLDY    59  58  96 CALM      29.64S
CLEBURNE       PTCLDY    57  57 100 CALM      29.66R
GRANBURY       PTCLDY    59  37  44 W7        29.68R
$$

TXZ083>090-098>101-113>116-127>130-139>142-154-155-241200-
WESTERN NORTH TEXAS

CITY           SKY/WX    TMP DP  RH WIND       PRES   REMARKS
WICHITA FALLS  PTCLDY    41  36  82 NW9       29.76R WCI  35
WF-KICKAPOO    PTCLDY    44  37  77 NW9       29.77R WCI  39
VERNON         CLEAR     41  31  66 N12       29.81R WCI  35
ABILENE        PTCLDY    47  37  68 N18       29.77R WCI  40
ABILENE-DYESS  MOCLDY    48  36  64 N15       29.76R
GRAHAM         PTCLDY    45  37  76 NW12      29.74R WCI  39
BRECKENRIDGE   CLOUDY    48  37  64 N9G25     29.76R
CISCO          PTCLDY    52  37  58 N17G26    29.73R
RANGER         PTCLDY    52  37  58 N13G20    29.72R
MINERAL WELLS  PTCLDY    51  39  63 N18       29.68R
STEPHENVILLE   CLOUDY    63  31  31 CALM      29.69S
COMANCHE       PTCLDY    65  31  28 NW8       29.70R
BROWNWOOD      CLOUDY    52  41  66 NE8       29.70R
COLEMAN        MOCLDY    59  30  33 W7        29.71R
$$

TXZ143>147-156>162-174-175-241200-
CENTRAL TEXAS

CITY           SKY/WX    TMP DP  RH WIND       PRES   REMARKS
WACO           PTCLDY    58  57  97 N3        29.65R
WACO-MCGREGOR  CLEAR     60  56  86 W5        29.65R
HILLSBORO      CLEAR     57  56  98 SE3       29.65R
CORSICANA      CLEAR     61  60  97 S8        29.65R
MEXIA          CLEAR     59  58  97 S12       29.64S
HEARNE         CLEAR     65  61  87 S9        29.66R
CAMERON        CLEAR     65  60  83 S13       29.64S
TEMPLE         CLEAR     59  57  93 S8        29.65S
KILLEEN        PTCLDY    67  54  62 W7        29.64S
KILLEEN-SKYLRK CLEAR     60  55  83 SW5       29.65S
FORT HOOD      CLEAR     60  55  85 CALM      29.62S
GATESVILLE     PTCLDY    61  54  77 CALM      29.68R
HAMILTON       PTCLDY    60  44  54 N5        29.68R
LAMPASAS       CLEAR     61  54  77 W6        29.66S
$$

TXZ095>097-106>112-122>126-135>138-148>153-164>167-241200-
EAST TEXAS

CITY           SKY/WX    TMP DP  RH WIND       PRES   REMARKS
PARIS          CLEAR     61  55  82 SW9       29.61R
SULPHUR SPRNGS CLEAR     63  58  86 SW13      29.62R
MOUNT PLEASANT CLEAR     62  55  77 S9        29.63S
GILMER         CLEAR     59  56  88 S12       29.63F
MINEOLA        CLEAR     63  57  82 S9        29.62S
TYLER          CLEAR     60  58  92 S13       29.64F
LONGVIEW       PTCLDY    62  59  90 S20G25    29.65F
MARSHALL       PTCLDY    57  55  91 S6        29.70R
ATHENS         CLEAR     57  57 100 S5        29.64S
PALESTINE      CLEAR     60  59  96 SE3       29.67R
JACKSONVILLE   CLEAR     60  59  98 S10G17    29.68F
HENDERSON      CLOUDY    60  59  95 S3        29.69S
CENTER         CLOUDY    65  63  92 S6        29.72S
NACOGDOCHES    MOCLDY    59  55  88 S3        29.70F
LUFKIN         MOCLDY    58  58 100 CALM      29.71R
$$

SUPPLEMENTAL OBSERVATIONS (CENTRAL)

CITY           SKY/WX    TMP DP  RH WIND       PRES   REMARKS
DENISON DAM      N/A     52  43  71 NW8         N/A
CADDO GRASSLND   N/A     55  41  58 N7G17       N/A
PAT MAYSE LAKE   N/A     61  59  94 S12         N/A
GREENVILLE       N/A     63  57  82 SW9         N/A
CEDAR HILL       N/A     61  57  88 SW5         N/A
ATHENS           N/A     61  55  82 S6          N/A
LAKE LIMESTONE   N/A     63  57  82 S5          N/A
MCGREGOR         N/A     57  55  94 W6          N/A
TEMPLE           N/A     61  57  88 SW1         N/A
$$

SUPPLEMENTAL OBSERVATIONS (WEST)

CITY           SKY/WX    TMP DP  RH WIND       PRES   REMARKS
MILLERS CREEK    N/A     43  36  75 N9          N/A  WCI  37
POSSUM KINGDOM   N/A     46  37  71 N12G20      N/A
LBJ GRASSLAND    N/A     46  37  71 NW10G22     N/A
GRANBURY         N/A     59  37  44 NW12G21     N/A
COMANCHE         N/A     64  30  27 NW10        N/A
HAMBY            N/A     46  36  66 N14G23      N/A
IVIE RESERVOIR   N/A     55  32  41 N5          N/A
COLORADO BEND    N/A     61  46  59 NW5         N/A
$$

SUPPLEMENTAL OBSERVATIONS (EAST)

CITY           SKY/WX    TMP DP  RH WIND       PRES   REMARKS
CLARKSVILLE      N/A     61  55  82 SW3         N/A
TEXARKANA        N/A     59  55  88 S5          N/A
LINDEN           N/A     61  57  88 S6          N/A
CADDO LAKE       N/A    N/A N/A N/A S3          N/A
GILMER           N/A     61  57  88 SW12        N/A
HENDERSON        N/A     61  57  88 S8          N/A
LUFKIN           N/A     61  57  88 MISG        N/A
N SABINE NF      N/A     63  59  88 MISG        N/A
S SABINE NF      N/A     61  57  88 SW3         N/A
$$

SUPPLEMENTAL OBSERVATIONS ARE A COLLECTION OF AUTOMATED INSTRUMENTS
THAT ARE MAINTAINED BY A VARIETY OF FEDERAL AND STATE AGENCIES.
CERTAIN ELEMENTS...SUCH AS HUMIDITY VALUES AND SUSTAINED WIND
SPEEDS...MAY BE APPROXIMATED.





USA.gov is the U.S. government's official web portal to all federal, state and local government web resources and services.